Weather History for KDEQ - February, 2013

Change the Weather History Date:

Thursday, February 21, 2013

  Actual Average Record
Temperature  
Mean Temperature 38 °F 47 °F  
Max Temperature 42 °F 60 °F 87 °F (1986)
Min Temperature 33 °F 34 °F 18 °F (1939)
Degree Days  
Heating Degree Days 27 18  
Month to date heating degree days 397 436  
Since 1 July heating degree days 2161 2372  
Cooling Degree Days 0 0  
Month to date cooling degree days 0 0  
Year to date cooling degree days 4 1  
Moisture  
Dew Point 34 °F    
Average Humidity 91    
Maximum Humidity 100    
Minimum Humidity 82    
Precipitation  
Precipitation 0.35 in 0.11 in 2.25 in (1997)
Month to date precipitation 1.40 2.97  
Year to date precipitation 3.40 6.29  
Snow  
Snow 0.00 in - - ()
Month to date snowfall 0.0  
Since 1 July snowfall 4.5  
Snow Depth 0.00 in    
Sea Level Pressure  
Sea Level Pressure 29.82 in    
Wind  
Wind Speed 8 mph (ENE)    
Max Wind Speed 20 mph    
Max Gust Speed 29 mph    
Visibility 4 miles    
Events Fog , Rain    
T = Trace of Precipitation, MM = Missing Value Source: NWS Daily Summary

Daily Weather History Graph

Daily Weather History Graph

Search for Another Location

Airport or City:

Trip Planner

Search our weather history database for the weather conditions in past years. The results will help you decide how hot, cold, wet, or windy it might be!

Date:

Astronomy

Feb. 21, 2013 Rise Set
Actual Time 6:55 AM CST 6:07 PM CST
Civil Twilight 6:30 AM CST 6:32 PM CST
Nautical Twilight 6:01 AM CST 7:01 PM CST
Astronomical Twilight 5:32 AM CST 7:30 PM CST
Moon 2:29 PM CST (2/21) 3:53 AM CST (2/21)
Length of Visible Light 12h 02m
Length of Day
11h 11m
Waxing Gibbous, 84% of the Moon is Illuminated
Feb 21
Waxing Gibbous
Feb 25
Full
Mar 4
Last Quarter
Mar 11
New
Mar 19
First Quarter

Hourly Weather History & Observations

Time (CST) Temp. Windchill Dew Point Humidity Pressure Visibility Wind Dir Wind Speed Gust Speed Precip Events Conditions
12:53 AM 34.0 °F 24.2 °F 30.0 °F 85% 29.98 in 10.0 mi East 15.0 mph - N/A   Overcast
1:53 AM 34.0 °F 25.0 °F 30.0 °F 85% 29.96 in 10.0 mi East 12.7 mph 27.6 mph 0.00 in   Overcast
2:53 AM 34.0 °F 24.6 °F 28.9 °F 82% 29.93 in 10.0 mi East 13.8 mph - N/A   Overcast
3:40 AM 34.0 °F 26.0 °F 28.9 °F 82% 29.91 in 10.0 mi East 10.4 mph 23.0 mph 0.00 in   Overcast
3:53 AM 34.0 °F 25.0 °F 30.0 °F 85% 29.92 in 8.0 mi East 12.7 mph - 0.00 in Rain Light Rain
4:53 AM 34.0 °F 24.2 °F 30.0 °F 85% 29.90 in 9.0 mi East 15.0 mph 20.7 mph 0.00 in   Overcast
5:53 AM 34.0 °F 24.2 °F 30.0 °F 85% 29.86 in 9.0 mi East 15.0 mph - 0.00 in   Overcast
6:53 AM 34.0 °F 25.0 °F 30.9 °F 89% 29.82 in 3.0 mi East 12.7 mph 18.4 mph 0.08 in Rain Rain
6:57 AM 34.0 °F 25.0 °F 30.9 °F 89% 29.82 in 1.8 mi East 12.7 mph 28.8 mph 0.02 in Rain Heavy Rain
7:04 AM 34.0 °F 25.5 °F 30.9 °F 89% 29.81 in 3.0 mi East 11.5 mph 21.9 mph 0.03 in Rain Rain
7:53 AM 34.0 °F 24.2 °F 32.0 °F 92% 29.80 in 6.0 mi East 15.0 mph - 0.03 in Rain Light Rain
8:00 AM 34.0 °F 24.6 °F 30.9 °F 89% 29.79 in 2.5 mi East 13.8 mph - 0.04 in Rain Heavy Rain
8:07 AM 34.0 °F 26.6 °F 32.0 °F 92% 29.79 in 2.5 mi East 9.2 mph 19.6 mph 0.05 in Rain Light Rain
8:14 AM 34.0 °F 25.0 °F 32.0 °F 92% 29.78 in 4.0 mi East 12.7 mph - 0.05 in Rain Light Rain
8:21 AM 34.0 °F 24.2 °F 30.9 °F 89% 29.76 in 2.5 mi East 15.0 mph 21.9 mph 0.12 in Rain Heavy Rain
8:40 AM 34.0 °F 23.8 °F 32.0 °F 92% 29.76 in 1.5 mi East 16.1 mph - 0.17 in Rain Rain
8:50 AM 33.8 °F 25.8 °F 32.0 °F 93% 29.78 in 2.5 mi East 10.4 mph - 0.17 in Rain Light Rain
8:53 AM 34.0 °F 26.0 °F 32.0 °F 92% 29.78 in 3.0 mi East 10.4 mph - 0.17 in Rain Light Rain
9:01 AM 34.0 °F 26.0 °F 32.0 °F 92% 29.78 in 2.5 mi East 10.4 mph - 0.02 in Rain Light Rain
9:12 AM 35.1 °F 26.9 °F 32.0 °F 89% 29.78 in 4.0 mi East 11.5 mph - 0.02 in Rain Light Rain
9:24 AM 34.0 °F 27.2 °F 32.0 °F 92% 29.79 in 1.8 mi East 8.1 mph - 0.05 in Rain Light Rain
9:44 AM 35.1 °F 29.3 °F 33.1 °F 92% 29.79 in 2.0 mi ENE 6.9 mph - 0.06 in Rain Light Rain
9:53 AM 35.1 °F 27.9 °F 33.1 °F 92% 29.78 in 2.0 mi East 9.2 mph - 0.06 in Rain Rain
10:35 AM 35.1 °F 27.9 °F 33.1 °F 92% 29.77 in 1.5 mi East 9.2 mph - 0.00 in Rain Light Rain
10:53 AM 36.0 °F 28.5 °F 34.0 °F 93% 29.77 in 1.5 mi ENE 10.4 mph - 0.01 in Rain Light Rain
11:53 AM 37.0 °F 33.3 °F 35.1 °F 93% 29.78 in 1.0 mi NNE 4.6 mph - 0.00 in Rain Light Rain
12:12 PM 37.0 °F 32.4 °F 35.1 °F 93% 29.77 in 0.8 mi NE 5.8 mph - 0.00 in   Overcast
12:35 PM 37.0 °F 30.4 °F 35.1 °F 93% 29.75 in 1.0 mi ENE 9.2 mph - 0.00 in   Overcast
12:45 PM 37.0 °F 32.4 °F 36.0 °F 96% 29.76 in 0.8 mi NE 5.8 mph - 0.00 in   Overcast
12:53 PM 37.0 °F 33.3 °F 36.0 °F 96% 29.77 in 0.8 mi NNE 4.6 mph - 0.00 in   Overcast
1:00 PM 37.9 °F 34.4 °F 36.0 °F 93% 29.75 in 1.2 mi NNE 4.6 mph - N/A   Overcast
1:53 PM 39.0 °F 32.3 °F 37.0 °F 93% 29.69 in 3.0 mi East 10.4 mph - 0.00 in   Overcast
2:53 PM 39.9 °F 35.1 °F 37.0 °F 89% 29.71 in 10.0 mi East 6.9 mph - N/A   Overcast
3:53 PM 39.9 °F - 37.9 °F 93% 29.74 in 8.0 mi Calm Calm - N/A   Overcast
4:53 PM 41.0 °F - 37.9 °F 89% 29.76 in 7.0 mi Calm Calm - N/A   Overcast
5:44 PM 41.0 °F 38.0 °F 37.9 °F 89% 29.78 in 7.0 mi NE 4.6 mph - N/A   Overcast
5:53 PM 41.0 °F 39.0 °F 37.9 °F 89% 29.78 in 6.0 mi ENE 3.5 mph - N/A   Overcast
6:18 PM 39.9 °F 37.8 °F 37.9 °F 93% 29.79 in 5.0 mi East 3.5 mph - N/A   Overcast
6:53 PM 39.9 °F 37.8 °F 37.9 °F 93% 29.80 in 5.0 mi ESE 3.5 mph - N/A   Overcast
7:22 PM 37.9 °F 34.4 °F 37.0 °F 97% 29.82 in 3.0 mi East 4.6 mph - N/A   Overcast
7:31 PM 39.0 °F 35.7 °F 37.9 °F 96% 29.82 in 2.5 mi East 4.6 mph - N/A   Overcast
7:37 PM 39.0 °F 35.7 °F 37.9 °F 96% 29.82 in 0.8 mi East 4.6 mph - N/A   Overcast
7:53 PM 39.0 °F 36.8 °F 39.0 °F 100% 29.83 in 0.5 mi East 3.5 mph - N/A Fog Fog
8:16 PM 39.0 °F 34.8 °F 37.9 °F 96% 29.83 in 1.8 mi ESE 5.8 mph - N/A   Overcast
8:45 PM 39.0 °F 34.8 °F 37.9 °F 96% 29.84 in 2.0 mi ESE 5.8 mph - N/A   Overcast
9:25 PM 39.0 °F 36.8 °F 37.9 °F 96% 29.87 in 0.8 mi NE 3.5 mph - N/A   Overcast
9:33 PM 39.0 °F - 39.0 °F 100% 29.87 in 1.0 mi Calm Calm - N/A   Overcast
9:42 PM 39.0 °F - 39.0 °F 100% 29.87 in 0.8 mi Calm Calm - N/A   Mist
9:53 PM 39.0 °F - 37.9 °F 96% 29.88 in 0.8 mi Calm Calm - N/A   Mist
10:53 PM 39.0 °F 36.8 °F 37.9 °F 96% 29.91 in 0.2 mi NW 3.5 mph - N/A Fog Fog
11:13 PM 37.9 °F 33.5 °F 37.9 °F 100% 29.92 in 0.5 mi WNW 5.8 mph - N/A Fog Fog
11:53 PM 39.0 °F 35.7 °F 37.9 °F 96% 29.93 in 1.8 mi WNW 4.6 mph - N/A   Overcast